EW6246 Weather Reports


Display with metric or nautical units.
time (UTC)temp
F
wind
direction
speed
MPH
gust
MPH
rain 1hr
in
rain 24hr
in
rain mn
in
humidity
%
barometer
mb
20260503234303 70 287 0.0 1.0 0.00 0.00 0.00 90 1018.2
20260503233800 71 259 0.0 1.0 0.00 0.00 0.00 89 1018.2
20260503233255 71 279 0.0 1.0 0.00 0.00 0.00 88 1018.0
20260503232753 71 282 1.0 1.0 0.00 0.00 0.00 87 1017.9
20260503232250 71 261 0.0 0.0 0.00 0.00 0.00 87 1018.0
20260503231748 71 258 1.0 1.0 0.00 0.00 0.00 87 1018.0
20260503231245 71 262 0.0 0.0 0.00 0.00 0.00 86 1018.1
20260503230740 72 275 1.0 2.0 0.00 0.00 0.00 85 1017.8
20260503230238 72 269 3.0 3.0 0.00 0.00 0.00 85 1017.8
20260503225736 72 258 0.0 1.0 0.00 0.00 0.00 86 1017.6
20260503225235 72 258 1.0 1.0 0.00 0.00 0.00 85 1017.7
20260503224732 72 258 1.0 2.0 0.00 0.00 0.00 85 1017.7
20260503224230 73 262 1.0 2.0 0.00 0.00 0.00 85 1017.6
20260503223728 73 258 1.0 1.0 0.00 0.00 0.00 84 1017.7
20260503223225 73 258 2.0 3.0 0.00 0.00 0.00 84 1017.7
20260503222721 74 258 1.0 1.0 0.00 0.00 0.00 84 1017.4
20260503222219 74 258 1.0 2.0 0.00 0.00 0.00 83 1017.4
20260503221717 74 258 3.0 3.0 0.00 0.00 0.00 83 1017.4
20260503221215 75 258 2.0 2.0 0.00 0.00 0.00 82 1017.2
20260503220711 75 258 3.0 6.0 0.00 0.00 0.00 81 1017.4
20260503220208 75 258 1.0 1.0 0.00 0.00 0.00 82 1017.6
20260503215705 76 258 4.0 5.0 0.00 0.00 0.00 81 1017.6
20260503215202 76 258 1.0 2.0 0.00 0.00 0.00 80 1017.5
20260503214700 76 258 2.0 2.0 0.00 0.00 0.00 80 1017.4
20260503214155 77 258 3.0 5.0 0.00 0.00 0.00 77 1017.2
20260503213649 77 258 3.0 3.0 0.00 0.00 0.00 78 1017.3
20260503213146 78 258 2.0 5.0 0.00 0.00 0.00 77 1017.3
20260503212643 79 258 3.0 5.0 0.00 0.00 0.00 74 1017.4
20260503212140 80 258 1.0 2.0 0.00 0.00 0.00 72 1017.3
20260503211638 79 258 1.0 2.0 0.00 0.00 0.00 72 1017.2
20260503211133 79 258 1.0 1.0 0.00 0.00 0.00 74 1017.0
20260503210630 78 258 4.0 6.0 0.00 0.00 0.00 75 1017.2
20260503210127 78 258 2.0 3.0 0.00 0.00 0.00 76 1017.1
20260503205622 78 258 3.0 3.0 0.00 0.00 0.00 75 1017.2
20260503205119 79 258 3.0 5.0 0.00 0.00 0.00 74 1017.2
20260503204616 80 258 2.0 3.0 0.00 0.00 0.00 73 1017.2
20260503204113 79 258 2.0 3.0 0.00 0.00 0.00 76 1017.1
20260503203610 79 258 4.0 5.0 0.00 0.00 0.00 73 1017.1
20260503203108 79 258 1.0 3.0 0.00 0.00 0.00 76 1017.2
20260503202605 80 258 3.0 5.0 0.00 0.00 0.00 73 1017.1
20260503202103 80 258 3.0 5.0 0.00 0.00 0.00 72 1017.3
20260503201600 81 258 0.0 1.0 0.00 0.00 0.00 72 1017.3
20260503201057 81 258 5.0 10.0 0.00 0.00 0.00 71 1017.2
20260503200554 81 258 1.0 1.0 0.00 0.00 0.00 71 1017.1
20260503200050 82 258 3.0 3.0 0.00 0.00 0.00 71 1017.4
20260503195547 81 258 2.0 2.0 0.00 0.00 0.00 71 1017.2
20260503195044 81 258 2.0 2.0 0.00 0.00 0.00 72 1017.2
20260503194541 81 258 2.0 2.0 0.00 0.00 0.00 73 1017.3
20260503194041 81 258 3.0 3.0 0.00 0.00 0.00 73 1017.4
20260503193538 80 258 2.0 2.0 0.00 0.00 0.00 73 1017.5
20260503193033 80 258 2.0 2.0 0.00 0.00 0.00 73 1017.6
20260503192530 82 258 3.0 3.0 0.00 0.00 0.00 71 1017.6
20260503192026 80 258 1.0 2.0 0.00 0.00 0.00 71 1017.4
20260503191523 80 258 2.0 2.0 0.00 0.00 0.00 72 1017.4
20260503191019 80 258 3.0 6.0 0.00 0.00 0.00 71 1017.5
20260503190516 80 258 5.0 7.0 0.00 0.00 0.00 72 1017.9
20260503190014 81 258 4.0 8.0 0.00 0.00 0.00 70 1017.8
20260503185509 81 258 1.0 1.0 0.00 0.00 0.00 71 1017.8
20260503185004 80 258 2.0 3.0 0.00 0.00 0.00 71 1017.9
20260503184500 80 258 2.0 3.0 0.00 0.00 0.00 72 1017.9
20260503183956 81 258 3.0 3.0 0.00 0.00 0.00 70 1018.0
20260503183453 81 258 4.0 7.0 0.00 0.00 0.00 72 1018.0
20260503182950 82 258 4.0 6.0 0.00 0.00 0.00 70 1018.0
20260503182449 81 258 2.0 2.0 0.00 0.00 0.00 71 1017.9
20260503181941 80 258 1.0 2.0 0.00 0.00 0.00 72 1018.3
20260503181438 81 258 4.0 5.0 0.00 0.00 0.00 72 1018.3
20260503180933 81 258 4.0 7.0 0.00 0.00 0.00 69 1018.2
20260503180432 81 258 3.0 6.0 0.00 0.00 0.00 70 1018.2
20260503175929 81 258 4.0 6.0 0.00 0.00 0.00 70 1018.3
20260503175427 81 258 1.0 1.0 0.00 0.00 0.00 69 1018.1
20260503174922 81 258 3.0 3.0 0.00 0.00 0.00 70 1018.4
20260503174420 81 269 2.0 2.0 0.00 0.00 0.00 72 1018.3
20260503173914 80 258 1.0 2.0 0.00 0.00 0.00 73 1018.3
20260503173411 79 258 3.0 5.0 0.00 0.00 0.00 74 1018.4
20260503172908 81 285 3.0 5.0 0.00 0.00 0.00 74 1018.5
20260503172405 81 14 4.0 7.0 0.00 0.00 0.00 73 1018.7
20260503171901 80 297 2.0 3.0 0.00 0.00 0.00 78 1018.6
20260503171358 79 258 1.0 1.0 0.00 0.00 0.00 78 1018.7
20260503170855 81 298 4.0 5.0 0.00 0.00 0.00 75 1018.6
20260503170352 81 315 1.0 1.0 0.00 0.00 0.00 76 1018.6
20260503150744 81 319 1.0 1.0 0.00 0.00 0.00 67 1019.6
20260503150240 80 345 0.0 1.0 0.00 0.00 0.00 66 1019.7
20260503140204 78 352 0.0 1.0 0.00 0.00 0.00 70 1020.1
20260503131134 77 299 0.0 1.0 0.00 0.00 0.00 73 1020.0
20260503130632 77 326 0.0 1.0 0.00 0.00 0.00 74 1019.7
20260503130129 76 291 0.0 1.0 0.00 0.00 0.00 75 1019.8
20260503110516 68 266 0.0 0.0 0.00 0.00 0.00 88 1018.7
20260503090402 63 291 0.0 0.0 0.00 0.00 0.00 96 1018.2
20260503081329 63 290 0.0 0.0 0.00 0.00 0.00 96 1017.7
20260503080825 63 291 0.0 0.0 0.00 0.00 0.00 95 1017.7
20260503080317 63 290 0.0 0.0 0.00 0.00 0.00 95 1017.8
20260503072753 62 295 1.0 1.0 0.00 0.00 0.00 94 1018.0
20260503072250 62 293 0.0 0.0 0.00 0.00 0.00 94 1018.3
20260503071746 62 296 0.0 1.0 0.00 0.00 0.00 94 1018.1
20260503071244 62 291 0.0 0.0 0.00 0.00 0.00 94 1018.2
20260503070740 62 293 0.0 0.0 0.00 0.00 0.00 94 1018.2
20260503070238 62 291 0.0 0.0 0.00 0.00 0.00 94 1018.2
20260503060157 62 290 0.0 0.0 0.00 0.00 0.00 93 1019.1
20260503054644 63 289 0.0 0.0 0.00 0.00 0.00 93 1019.0
20260503054141 63 287 0.0 0.0 0.00 0.00 0.00 93 1019.2
20260503053639 62 291 0.0 0.0 0.00 0.00 0.00 93 1019.0
20260503053138 62 287 0.0 1.0 0.00 0.00 0.00 93 1019.2
20260503052634 62 293 1.0 1.0 0.00 0.00 0.00 93 1019.2
20260503052130 62 287 0.0 0.0 0.00 0.00 0.00 93 1019.2
20260503051625 62 287 0.0 0.0 0.00 0.00 0.00 93 1019.2
20260503051124 63 291 1.0 1.0 0.00 0.00 0.00 93 1019.2
20260503050620 63 280 0.0 0.0 0.00 0.00 0.00 93 1019.4
20260503050117 63 296 1.0 2.0 0.00 0.00 0.00 92 1019.2
20260503045614 63 278 0.0 0.0 0.00 0.00 0.00 92 1019.1
20260503045111 63 281 0.0 0.0 0.00 0.00 0.00 92 1019.2
20260503044608 63 279 0.0 0.0 0.00 0.00 0.00 92 1019.4
20260503044105 63 277 0.0 1.0 0.00 0.00 0.00 92 1019.2
20260503043601 63 279 0.0 0.0 0.00 0.00 0.00 91 1019.4
20260503043058 63 275 0.0 0.0 0.00 0.00 0.00 91 1019.5
20260503042555 63 276 0.0 0.0 0.00 0.00 0.00 91 1019.4
20260503042051 63 284 1.0 1.0 0.00 0.00 0.00 91 1019.5
20260503041548 63 275 0.0 0.0 0.00 0.00 0.00 91 1019.5
20260503041046 63 278 1.0 1.0 0.00 0.00 0.00 91 1019.6
20260503040543 63 280 0.0 1.0 0.00 0.00 0.00 92 1019.8
20260503040040 63 280 0.0 0.0 0.00 0.02 0.02 91 1019.4
20260503035537 63 279 0.0 0.0 0.00 0.02 0.02 91 1019.8
20260503035035 63 283 1.0 1.0 0.00 0.02 0.02 91 1019.7
20260503034531 63 281 0.0 0.0 0.00 0.02 0.02 90 1019.7
20260503034028 63 276 0.0 0.0 0.00 0.02 0.02 91 1019.6
20260503033526 64 277 0.0 0.0 0.00 0.02 0.02 90 1019.7
20260503033024 64 281 0.0 0.0 0.00 0.02 0.02 89 1019.6
20260503032522 64 282 1.0 1.0 0.00 0.02 0.02 88 1019.6
20260503032020 63 290 2.0 2.0 0.00 0.02 0.02 88 1019.5
20260503031517 63 277 0.0 0.0 0.00 0.02 0.02 91 1019.5
20260503031014 63 279 0.0 1.0 0.00 0.02 0.02 90 1019.6
20260503030510 63 276 0.0 1.0 0.00 0.02 0.02 90 1019.6
20260503030008 63 277 0.0 0.0 0.00 0.02 0.02 90 1019.7
20260503025504 64 280 1.0 1.0 0.00 0.02 0.02 90 1019.6
20260503025002 64 273 0.0 0.0 0.00 0.02 0.02 90 1019.5
20260503024458 64 271 0.0 0.0 0.00 0.02 0.02 89 1019.7
20260503023955 64 267 1.0 1.0 0.00 0.02 0.02 89 1019.5
20260503023452 63 275 1.0 1.0 0.00 0.02 0.02 90 1019.6
20260503022949 64 285 1.0 2.0 0.00 0.02 0.02 89 1019.5
20260503022444 64 281 1.0 1.0 0.00 0.02 0.02 90 1019.8
20260503021940 64 279 0.0 0.0 0.00 0.02 0.02 91 1019.4
20260503021436 64 275 0.0 0.0 0.00 0.02 0.02 92 1019.5
20260503020934 64 274 1.0 1.0 0.00 0.02 0.02 92 1019.2
20260503020432 64 274 0.0 0.0 0.00 0.02 0.02 92 1019.4
20260503015928 65 277 0.0 0.0 0.00 0.02 0.02 92 1019.3
20260503015425 65 279 0.0 0.0 0.00 0.02 0.02 90 1019.2
20260503014920 65 280 0.0 0.0 0.00 0.02 0.02 90 1019.0
20260503014412 65 280 0.0 0.0 0.00 0.02 0.02 88 1019.4
20260503013910 65 276 1.0 1.0 0.00 0.02 0.02 86 1019.1
20260503013407 65 273 0.0 0.0 0.00 0.02 0.02 88 1019.0
20260503012904 65 261 0.0 0.0 0.00 0.02 0.02 84 1018.9
20260503012402 65 265 0.0 1.0 0.00 0.02 0.02 88 1018.7
20260503011857 65 265 0.0 0.0 0.00 0.02 0.02 83 1018.9
20260503011355 66 266 0.0 1.0 0.00 0.02 0.02 85 1018.7
20260503010851 67 267 1.0 1.0 0.00 0.02 0.02 86 1018.7
20260503010348 67 268 0.0 0.0 0.00 0.02 0.02 84 1018.6
20260503005845 68 269 0.0 0.0 0.00 0.02 0.02 88 1018.6
20260503005343 69 274 0.0 0.0 0.00 0.02 0.02 84 1018.4
20260503004839 69 279 1.0 1.0 0.00 0.02 0.02 82 1018.4
20260503004336 70 313 0.0 0.0 0.00 0.02 0.02 89 1018.3
20260503003833 69 328 2.0 2.0 0.00 0.02 0.02 89 1018.5
20260503003325 69 322 2.0 2.0 0.00 0.02 0.02 91 1018.3
20260503002821 68 278 0.0 1.0 0.00 0.02 0.02 90 1018.3
20260503002319 68 275 0.0 1.0 0.00 0.02 0.02 90 1018.3
20260503001815 68 273 1.0 1.0 0.00 0.02 0.02 90 1018.3
20260503001311 68 279 0.0 0.0 0.00 0.02 0.02 91 1018.1
20260503000809 68 279 0.0 0.0 0.00 0.02 0.02 92 1018.1
20260503000306 68 273 0.0 0.0 0.00 0.02 0.02 93 1018.0
20260502235803 68 273 0.0 0.0 0.00 0.02 0.02 93 1018.0
20260502235301 69 274 0.0 0.0 0.00 0.02 0.02 92 1018.1
20260502234757 69 279 0.0 0.0 0.00 0.02 0.02 92 1017.9